Regional Weather Roundup
Issued by NWS

Home | Current Version | Previous Version | Text Only | Print | Product List | Glossary Off
Versions: 1 2 3 4 5 6 7 8 9 10 11 12 13 14 15 16 17 18 19 20 21 22 23 24 25 26 27 28

000
ASUS45 KCYS 190110
RWRWY

WYOMING REGIONAL WEATHER ROUNDUP
NATIONAL WEATHER SERVICE CHEYENNE WY
700 PM MDT WED OCT 18 2017

NOTE:  "FAIR" INDICATES FEW OR NO CLOUDS BELOW 12,000 FEET
WITH NO SIGNIFICANT WEATHER AND/OR OBSTRUCTIONS TO VISIBILITY.

WYZ001-190200-
YELLOWSTONE NATIONAL PARK

CITY           SKY/WX    TMP DP  RH WIND       PRES   REMARKS
LK YELLOWSTONE   N/A     44  24  45 VRB6      30.21S
W YELLOWSTONE  NOT AVBL

$$
WYZ002>013-054>058-071-098>099-190200-
NORTHERN WYOMING

CITY           SKY/WX    TMP DP  RH WIND       PRES   REMARKS
JACKSON        FAIR      49  20  31 SW9       30.16S
CODY           FAIR      60  20  21 SW8       30.02R
GREYBULL       FAIR      64  19  17 E3        29.93F
WORLAND        FAIR      55  26  32 SW3       29.94S
SHERIDAN       FAIR      52  33  48 NW7       29.90F
BUFFALO        FAIR      61  11  14 S13       29.97F
GILLETTE       FAIR      52  26  36 S12       29.97S
HULETT         FAIR      59  27  29 S10       29.98F
NEWCASTLE      FAIR      57  23  26 SE10      30.02F

$$
WYZ014>020-022>026-101>103-190200-
CENTRAL WYOMING

CITY           SKY/WX    TMP DP  RH WIND       PRES   REMARKS
BIG PINEY      FAIR      48  17  29 W7        30.20S
PINEDALE       FAIR      45  16  31 W6        30.21S
DUBOIS         FAIR      46  18  31 W6        30.15S
LANDER         FAIR      61  14  16 SW13      30.04F
RIVERTON       FAIR      62  15  16 SW7       30.05S
CASPER         FAIR      54  13  19 SW13      30.06S
DOUGLAS        FAIR      53  21  28 VRB7      30.06S

$$
WYZ021-027>030-104>119-190200-
SOUTHERN WYOMING

CITY           SKY/WX    TMP DP  RH WIND       PRES   REMARKS
EVANSTON       FAIR      54   9  16 NW10      30.21F
KEMMERER       FAIR      50  12  22 W6        30.23S
FORT BRIDGER   FAIR      57   6  12 S5        30.24S
ROCK SPRINGS   FAIR      55   6  14 SW6       30.20S
DIXON          FAIR      44  15  31 NE6       30.23S
RAWLINS        FAIR      53  10  18 SW6       30.19F
SARATOGA       FAIR      46   9  21 SW8       30.23R
LARAMIE        FAIR      48  10  21 W6        30.21S
CHEYENNE       FAIR      59  18  20 E7        30.17R
TORRINGTON     FAIR      58  24  27 E9        30.05R
PINE BLUFFS    FAIR      54  23  30 SE5       30.14R

$$




USA.gov is the U.S. government's official web portal to all federal, state and local government web resources and services.